www.pogodaiklimat.ru

Погода и климат >> Архив погоды >> Ливия >> Kufra


ПОГОДА в Kufra

  • Прогноз погоды в Kufra
  • Монитор погоды в Kufra
  • Климат города

АРХИВ ПОГОДЫ в Kufra

Время (UTC), дата Ветер
(напр.,м/с)
 
Видим.   Явления Облачность Т
(С)
Тd
(С)
f
(%)
Тe
(С)
Тes
(С)
Комфортность P
(гПа)
Po
(гПа)
Тmin
(С)
Tmax
(С)
R
(мм)
R24
(мм)
S
(см)
18 11.10 С 3 н/о н/о +31.6 +4.4 18 +29 +29 жарко 1015.0 966.9 +36.3
21 11.10 С 3 н/о н/о +28.9 +3.0 19 +27 +27 жарко 1016.1 967.5
00 12.10 СВ 3 н/о н/о +26.7 +3.8 23 +25 +25 комфорт 1014.9 966.0
03 12.10 СВ 3 н/о н/о +24.1 +5.4 30 +24 +24 комфорт 1015.7 966.4
06 12.10 СВ 5 н/о н/о +23.8 +6.1 32 +24 +24 комфорт 1017.6 968.1 +22.9
09 12.10 ЮЗ 1 н/о н/о +31.7 +4.5 18 +29 +29 жарко 1017.1 968.9
12 12.10 С 3 н/о н/о +35.1 +2.5 13 +32 +32 жарко 1014.9 967.3
15 12.10 С 4 н/о н/о +34.4 +2.0 13 +31 +31 жарко 1014.0 966.3
18 12.10 С 3 н/о н/о +30.2 +1.6 16 +28 +28 жарко 1016.3 967.9 +35.5
21 12.10 С 4 н/о н/о +26.7 +5.0 25 +26 +26 жарко 1017.5 968.5
00 13.10 СВ 5 н/о н/о +25.1 +6.8 31 +25 +25 комфорт 1017.3 968.1
03 13.10 СВ 4 н/о н/о +22.8 +7.7 38 +24 +24 комфорт 1017.6 968.0
06 13.10 СВ 5 н/о н/о +23.6 +7.7 36 +24 +24 комфорт 1018.7 969.2 +21.8
09 13.10 ЮВ 5 н/о н/о +30.7 +7.2 23 +29 +29 жарко 1018.2 969.8
12 13.10 ЮЗ 1 н/о н/о +34.1 +3.8 15 +31 +31 жарко 1015.6 967.8
15 13.10 С 2 н/о н/о +33.2 +3.1 15 +30 +30 жарко 1015.0 967.1
18 13.10 С 2 н/о н/о +29.2 +3.9 20 +27 +27 жарко 1017.1 968.5 +34.7
21 13.10 С 3 н/о н/о +26.6 +4.4 24 +26 +26 жарко 1018.2 969.1
00 14.10 СВ 4 н/о н/о +24.2 +6.5 32 +24 +24 комфорт 1018.2 968.8
03 14.10 СВ 4 н/о н/о +22.1 +6.7 37 +23 +23 комфорт 1018.4 968.6
06 14.10 СВ 3 н/о н/о +22.5 +7.1 37 +23 +23 комфорт 1019.5 969.8 +20.8
09 14.10 ЮВ 5 н/о н/о +31.7 +5.2 19 +30 +30 жарко 1018.2 970.0
12 14.10 Ю 3 н/о н/о +35.4 +3.8 14 +32 +32 жарко 1014.8 967.3
15 14.10 0 н/о н/о +34.6 +2.2 13 1013.8 966.2
18 14.10 С 1 н/о н/о +29.7 +3.6 19 +28 +28 жарко 1016.4 967.9 +35.8
21 14.10 СВ 2 н/о н/о +27.1 +4.2 23 +26 +26 жарко 1017.7 968.7
00 15.10 В 3 н/о н/о +23.9 +4.8 29 +24 +24 комфорт 1017.8 968.3
03 15.10 В 3 н/о н/о +21.9 +4.5 32 +22 +22 комфорт 1018.1 968.3
06 15.10 ЮВ 4 н/о н/о +24.9 +4.6 27 +24 +24 комфорт 1019.1 969.7 +20.8
09 15.10 Ю 4 н/о н/о +32.6 +4.4 17 +30 +30 жарко 1018.4 970.3
12 15.10 0 н/о н/о +35.8 +4.1 14 1015.7 968.2
15 15.10 0 н/о н/о +35.6 +2.9 13 1014.9 967.4
18 15.10 СВ 1 н/о н/о +29.7 +4.3 20 +26 +26 жарко 1016.8 968.3 +36.6
21 15.10 СВ 1 н/о н/о +26.9 +4.0 23 +26 +26 жарко 1017.9 968.9
00 16.10 ЮВ 2 н/о н/о +24.7 +3.3 25 +24 +24 комфорт 1017.6 968.3
03 16.10 СВ 2 н/о н/о +22.9 +3.9 29 +23 +23 комфорт 1017.6 968.0
06 16.10 ЮВ 1 н/о н/о +25.6 +4.1 25 +25 +25 комфорт 1018.8 969.6 +21.1
09 16.10 ЮЗ 5 н/о н/о +32.4 +2.4 15 +30 +30 жарко 1018.3 970.1
15 16.10 СВ 2 н/о н/о +35.7 +1.9 12 +32 +32 жарко 1014.4 966.9
18 16.10 В 2 н/о н/о +30.4 +1.7 16 +28 +28 жарко 1015.9 967.5 +37.7
21 16.10 СВ 1 н/о н/о +27.1 +2.9 21 +26 +26 жарко 1017.0 968.1
00 17.10 СВ 1 н/о н/о +24.3 +3.0 25 +24 +24 комфорт 1016.5 967.1
03 17.10 СВ 2 н/о н/о +23.4 +2.8 26 +23 +23 комфорт 1016.1 966.6
06 17.10 Ю 1 н/о н/о +24.4 +2.5 24 +24 +24 комфорт 1017.5 968.1 +20.9
09 17.10 Ю 5 н/о н/о +33.2 +3.1 15 +30 +30 жарко 1016.0 968.1
12 17.10 0 н/о н/о +36.7 +2.7 12 1012.7 965.4
15 17.10 СЗ 2 н/о н/о +36.3 +1.1 11 +33 +33 жарко 1011.8 964.5
18 17.10 СВ 1 н/о н/о +29.6 +2.0 17 +27 +27 жарко 1013.9 965.5 +37.7
21 17.10 штиль 0 н/о н/о +26.8 +2.0 20 +25 +25 комфорт 1014.9 966.0
00 18.10 штиль 0 н/о н/о +24.7 +2.8 24 +24 +24 комфорт 1014.1 964.9
03 18.10 штиль 0 н/о н/о +23.1 +3.1 27 +23 +23 комфорт 1014.2 964.8
06 18.10 ЮЗ 1 н/о н/о +24.2 +1.7 23 +23 +23 комфорт 1015.4 966.1 +20.3
09 18.10 Ю 5 н/о н/о +33.7 +1.5 13 +31 +31 жарко 1014.1 966.3
12 18.10 0 н/о н/о +36.9 +2.8 12 1010.9 963.8
15 18.10 0 н/о н/о +36.5 +1.3 11 1010.6 963.4

 

Местоположение метеостанции Kufra (Ливия): широта 24.22 долгота 23.30 высота над уровнем моря 436 м.

В архиве по умолчанию представлена погода в Kufra за последнюю неделю. Архивные данные за месяц целиком и за предыдущие месяцы, начиная с января 2011 года, Вы можете получить, выбрав интересующий диапазон дат из раскрывающегося списка и нажав кнопку "Ввод!".


*Определитесь, кто Вы:
робот инопланетянин человек

Внимание! Время в таблицах - всемирное. Для получения местного времени необходимо прибавить поправку, которая в Kufra равна 1 ч.

Смотрите также архив погоды в соседних городах и на ближайших метеорологических станциях:

Погода в Tazirbu (Ливия) (281 км)
Погода в Jalo (Ливия) (562 км)
Погода в Farafra (Египет) (565 км)
Погода в Siwa (Египет) (589 км)
Погода в Dakhla (Египет) (592 км)
Погода в Maradah (Ливия) (704 км)
Погода в Baharia (Египет) (722 км)
Погода в Kharga (Египет) (742 км)
Погода в Faya (Чад) (814 км)
Погода в Asyut (Египет) (835 км)

Пояснения к столбцам:

Ветер - указаны скорость ветра в м/с - средняя за 10 мин, порывы в срок и между сроками (в фигурных скобках) и направление, откуда дует ветер: С - северный, СВ - северо-восточный, В - восточный, ЮВ - юго-восточный, Ю - южный, ЮЗ - юго-западный, З - западный, СЗ - северо-западный.
Видимость - горизонтальная дальность видимости в метрах или километрах. При видимости от 1 до 10 км при отсутствии осадков обычно наблюдается дымка, при ухудшении видимости до 1 км и менее - туман. В сухую погоду видимость может ухудшаться дымом, пылью или мглою.
Явления - указаны атмосферные явления, наблюдавшиеся в срок или в последний час перед сроком; фигурными скобками обозначены явления, наблюдавшиеся между сроками (за 1-3 часа до срока); квадратными скобками обозначены град или гололедные отложения с указанием их диаметра в мм.
Облачность - указаны через наклонную черту общая и нижняя облачность в баллах и высота нижней границы облаков в метрах; квадратными скобками обозначены формы облаков: Ci - перистые, Cs - перисто-слоистые, Cc - перисто-кучевые, Ac - высококучевые, As - высокослоистые, Sc - слоисто-кучевые, Ns - слоисто-дождевые, Cu - кучевые, Cb - кучево-дождевые. Подробнее классификацию облаков см. в Атласе облаков (PDF).
T - Температура воздуха - температура, измеренная на высоте 2 м над землей.
Td - Температура точки росы - температура, при понижении до которой содержащийся в воздухе водяной пар достигнет насыщения.
f - Относительная влажность воздуха - влажноcть воздуха, измеренная на высоте 2 м над землей.
Te - Эффективная температура - температура, которую ощущает одетый по сезону человек в тени. Характеристика душности погоды. При расчете учитывается влияние влажности воздуха и скорости ветра на теплоощущения человека.
Tes - Эффективная температура на солнце - температура, которую ощущает человек, с поправкой на солнечный нагрев. Характеристика знойности погоды. Зависит от высоты солнца над горизонтом, облачности и скорости ветра. Ночью, в пасмурную погоду, а также при ветре 12 м/с и более поправка равна нулю.
P - Атмосферное давление - приведенное к уровню моря атмосферное давление.
Po - Атмосферное давление - измеренное на уровне метеостанции атмосферное давление.
Tmin - Минимальная температура - минимум температуры воздуха на высоте 2 м над землей.
Tmax - Максимальная температура - максимум температуры воздуха на высоте 2 м над землей.
R - Количество осадков - Количество выпавших осадков за период времени, мм. При наведении курсора мыши на число - период времени, за который выпало указанное количество осадков.
R24 - Количество осадков - Количество выпавших осадков за 24 часа, мм.
S - Снежный покров - Высота снежного покрова, см. При наведении курсора мыши на число - состояние снежного покрова и степень покрытия местности в баллах.